Location: Newark
(45.5000°N, 11.4167°E)
Time: 21:41:36
(UTC+00:00)

Transit 2A Rocket - Pass Details

Date: 01 September 2019
Orbit: 592 x 911 km, 66.7° (Epoch: 18 September)

Event Time Altitude Azimuth Distance (km) Brightness Sun altitude
Rises 14:16:42 0° 154° (SSE) 3,432 8.4 36.0°
Reaches altitude 10° 14:20:57 10° 125° (SE) 2,435 7.5 35.3°
Maximum altitude 14:22:56 12° 104° (ESE) 2,266 7.2 35.0°
Drops below altitude 10° 14:24:53 10° 83° (E) 2,368 7.2 34.7°
Sets 14:28:51 0° 53° (NE) 3,219 7.7 34.1°
